Miscellaneous Local Product
Issued by NWS Hastings, NE

Home | Current Version | Previous Version | Text Only | Print | Product List | Glossary On
Versions: 1 2 3 4 5 6 7 8 9 10 11 12 13 14 15 16 17 18 19 20 21 22 23 24 25 26 27 28 29 30 31 32 33 34 35 36 37 38 39 40 41 42 43 44 45 46 47 48 49 50
000
AXUS43 KGID 290002
MISGRI

GID CWA HOURLY WEATHER ROUNDUP
NATIONAL WEATHER SERVICE HASTINGS NE
600 PM CST WED JAN 28 2015

NOTE: "FAIR" INDICATES FEW OR NO CLOUDS BELOW 12,000 FEET WITH NO
SIGNIFICANT WEATHER AND/OR OBSTRUCTIONS TO VISIBILITY.

...SOUTH CENTRAL NEBRASKA...

CITY           SKY/WX    TMP DP  RH WIND       PRES   REMARKS
GRAND ISLAND   CLEAR     59  31  34 NW16      29.79R
HASTINGS       CLEAR     58  30  34 NW15      29.79R
KEARNEY        CLEAR     57  30  35 NW15      29.84R
ORD            PTCLDY    55  28  35 NW26G33   29.82R
YORK           CLEAR     57  36  44 NW10      29.73R
AURORA         CLEAR     57  33  41 NW12      29.77R
LEXINGTON      MOCLDY    60  29  30 NW21G26   29.87R
HOLDREGE       CLEAR     60  30  32 NW14      29.84R
HEBRON         CLEAR     61  28  28 W3        29.74R

...NEBRASKA PANHANDLE...

CITY           SKY/WX    TMP DP  RH WIND       PRES   REMARKS
CHADRON        CLOUDY    48  32  53 N5        30.07S
ALLIANCE       CLOUDY    45  32  60 N20       30.08R
SCOTTSBLUFF    CLOUDY    46  36  68 W10       30.12R
SIDNEY         MOCLDY    45  36  70 NW18G30   30.11R

...WESTERN AND NORTH CENTRAL NEBRASKA...

CITY           SKY/WX    TMP DP  RH WIND       PRES   REMARKS
VALENTINE      CLOUDY    54  27  35 NW23G33   29.93R
AINSWORTH      MOCLDY    54  29  38 NW23G33   29.88R
ONEILL         CLEAR     54  35  48 NW12      29.80R
BROKEN BOW     MOCLDY    57  29  34 NW22G35   29.87R
IMPERIAL       PTCLDY    54  34  46 NW25G35   30.01R
NORTH PLATTE   CLOUDY    56  29  35 NW24G36   29.96R
MCCOOK         PTCLDY    60  29  30 NW24G33   29.93R

...EASTERN NEBRASKA...

CITY           SKY/WX    TMP DP  RH WIND       PRES   REMARKS
NORFOLK        CLEAR     55  36  48 NW16      29.74R
SO SIOUX CITY  CLEAR     41  34  76 CALM      29.72R
TEKAMAH        CLEAR     49  35  58 CALM      29.70R
COLUMBUS       CLEAR     55  34  44 NW18      29.75R
ALBION         CLEAR     56  32  39 NW16G22   29.77R
OMAHA EPPLEY   PTCLDY    49  34  56 NW5       29.69S
OFFUTT AFB     CLEAR     49  34  56 W6        29.69S
MILLARD        CLEAR     55  36  48 CALM      29.69R
LINCOLN        CLEAR     51  34  52 CALM      29.72R
NEBRASKA CITY  CLEAR     55  30  38 W8        29.69S
BEATRICE       CLEAR     57  33  40 W8        29.72R
FALLS CITY     CLEAR     59  36  42 W12       29.69R

...NORTHERN KANSAS...

CITY           SKY/WX    TMP DP  RH WIND       PRES   REMARKS
GOODLAND       CLEAR     54  34  46 NW22G31   30.03R
HILL CITY      CLEAR     63  33  32 NW17      29.89R
NORTON         CLEAR     59  25  27 NW18G24   29.88R
PHILLIPSBURG   CLEAR     66  32  28 NW15      29.85R
SMITH CENTER   CLEAR     61  30  31 NW14      29.82R
BELOIT         CLEAR     64  30  27 W9        29.78R
HAYS           CLEAR     66  28  24 NW16G22   29.87R
RUSSELL        PTCLDY    65  31  28 NW18      29.83R
CONCORDIA      CLEAR     62  33  33 W10       29.76R
SALINA         MOCLDY    62  33  33 W8        29.79R
TOPEKA         PTCLDY    67  37  33 W12       29.73R



USA.gov is the U.S. government's official web portal to all federal, state and local government web resources and services.